Location: Unspecified
(38.3847°N, 0.7745°W)
Time: 15:42:03
(UTC+01:00)

Envisat - Visible Passes

Search period start: 23 May 2022 00:00
Search period end: 02 June 2022 00:00
Orbit: 764 x 765 km, 98.2° (Epoch: 22 May)

Date Brightness Start Highest point End Pass type
(mag) Time Alt. Az. Time Alt. Az. Time Alt. Az.
23 May 5.7 04:26:04 10° ENE 04:28:57 15° E 04:31:49 10° SE visible
25 May 5.1 04:50:04 10° NE 04:54:21 27° E 04:58:35 10° SSE visible
26 May 5.9 04:15:32 10° ENE 04:17:04 11° E 04:18:36 10° ESE visible
28 May 5.4 04:38:43 10° NE 04:42:31 21° E 04:46:16 10° SE visible
30 May 4.5 05:03:08 10° NNE 05:07:50 37° E 05:12:30 10° SSE visible
31 May 5.6 04:27:33 10° NE 04:30:38 16° E 04:33:42 10° SE visible
